Weather History for Red Deer, AB

Change the Weather History Date:

Wednesday, May 29, 2013

  Actual Average Record
Temperature  
Mean Temperature 54 °F -  
Max Temperature 60 °F 69 °F 75 °F (2002)
Min Temperature 48 °F 45 °F 32 °F (2011)
Degree Days  
Heating Degree Days 11    
Growing Degree Days 4 (Base 50)    
Moisture  
Dew Point 44 °F    
Average Humidity 69    
Maximum Humidity 76    
Minimum Humidity 49    
Precipitation  
Precipitation 0.20 in 0.11 in - ()
Sea Level Pressure  
Sea Level Pressure 29.73 in    
Wind  
Wind Speed 3 mph ()    
Max Wind Speed 9 mph    
Max Gust Speed -    
Visibility 13.2 miles    
Events Rain    
Averages and records for this station are not official NWS values.
T = Trace of Precipitation, MM = Missing Value Source: Averaged Metar Reports

Daily Weather History Graph

Daily Weather History Graph

Search for Another Location

Airport:

Trip Planner

Search our weather history database for the weather conditions in past years. The results will help you decide how hot, cold, wet, or windy it might be!

Date:

Astronomy

May. 29, 2013 Rise Set
Actual Time 5:22 AM MDT 9:43 PM MDT
Civil Twilight 4:36 AM MDT 10:30 PM MDT
Nautical Twilight 3:28 AM MDT 11:39 PM MDT
Astronomical Twilight 2:05 AM MDT 1:00 AM MDT
Moon 12:49 AM MDT (5/29) 10:49 AM MDT (5/29)
Length of Visible Light 17h 53m
Length of Day
16h 21m
Waning Gibbous, 72% of the Moon is Illuminated
May 29
Waning Gibbous
May 31
Last Quarter
Jun 8
New
Jun 16
First Quarter
Jun 23
Full

Hourly Weather History & Observations

Time (MDT) Temp. Dew Point Humidity Pressure Visibility Wind Dir Wind Speed Gust Speed Precip Events Conditions
12:00 AM 51 °F 42 °F 62% 29.74 in 15 mi South 4.6 mph - -   Partly Cloudy
12:00 AM 51.8 °F 42.8 °F 71% 29.74 in 15.0 mi South 4.6 mph - N/A   Mostly Cloudy
1:00 AM 50.0 °F 42.8 °F 76% 29.74 in 15.0 mi SE 6.9 mph - N/A   Scattered Clouds
2:00 AM 50.0 °F 42.8 °F 76% 29.73 in 15.0 mi SSE 3.5 mph - N/A   Mostly Cloudy
3:00 AM 50.0 °F 42.8 °F 76% 29.71 in 15.0 mi Calm Calm - N/A   Mostly Cloudy
4:00 AM 51.8 °F 42.8 °F 71% 29.71 in 15.0 mi Calm Calm - N/A   Overcast
5:00 AM 50.0 °F 42.8 °F 76% 29.71 in 15.0 mi Calm Calm - N/A   Overcast
6:00 AM 49 °F 42 °F 67% 29.73 in 15 mi Calm Calm - -   Overcast
6:00 AM 48.2 °F 41.0 °F 76% 29.73 in 15.0 mi Calm Calm - N/A   Overcast
7:00 AM 50.0 °F 42.8 °F 76% 29.73 in 15.0 mi NE 3.5 mph - N/A   Overcast
7:42 AM - - N/A% - 10.0 mi East 2.3 mph - N/A Rain Light Rain
8:00 AM 51.8 °F 44.6 °F 76% 29.73 in 10.0 mi Calm Calm - N/A Rain Light Rain
9:00 AM 53.6 °F 44.6 °F 72% 29.72 in 6.0 mi SE 2.3 mph - N/A Rain Light Rain
10:00 AM 53.6 °F 44.6 °F 72% 29.73 in 10.0 mi SSE 4.6 mph - N/A Rain Light Rain
11:00 AM 53.6 °F 44.6 °F 72% 29.74 in 10.0 mi South 8.1 mph - N/A Rain Light Rain
12:00 PM 53 °F 44 °F 62% 29.76 in 10 mi South 3.5 mph - - Rain Light Rain
12:00 PM 53.6 °F 44.6 °F 72% 29.76 in 10.0 mi South 4.6 mph - N/A Rain Light Rain
1:00 PM 53.6 °F 44.6 °F 72% 29.76 in 8.0 mi SW 6.9 mph - N/A Rain Light Rain
2:00 PM 50.0 °F 42.8 °F 76% 29.75 in 8.0 mi North 9.2 mph - N/A Rain Light Rain
2:33 PM - - N/A% - 15.0 mi NW 6.9 mph - N/A   Mostly Cloudy
3:00 PM 53.6 °F 44.6 °F 72% 29.73 in 15.0 mi WNW 5.8 mph - N/A   Mostly Cloudy
4:00 PM 57.2 °F 44.6 °F 63% 29.73 in 15.0 mi Calm Calm - N/A   Mostly Cloudy
5:00 PM 59.0 °F 44.6 °F 59% 29.74 in 15.0 mi SE 3.5 mph - N/A   Mostly Cloudy
6:00 PM 59 °F 45 °F 49% 29.73 in 15 mi Calm Calm - -   Partly Cloudy
6:00 PM 59.0 °F 44.6 °F 59% 29.73 in 15.0 mi Calm Calm - N/A   Mostly Cloudy
7:00 PM 59.0 °F 44.6 °F 59% 29.73 in 15.0 mi Calm Calm - N/A   Mostly Cloudy
8:00 PM 59.0 °F 44.6 °F 59% 29.73 in 15.0 mi SE 4.6 mph - N/A   Mostly Cloudy
9:00 PM 57.2 °F 46.4 °F 67% 29.73 in 15.0 mi Calm Calm - N/A   Mostly Cloudy
10:00 PM 53.6 °F 44.6 °F 72% 29.74 in 15.0 mi Calm Calm - N/A   Scattered Clouds
11:00 PM 51.8 °F 44.6 °F 76% 29.75 in 15.0 mi Calm Calm - N/A   Scattered Clouds